Manhattan, KS

6:20 PM CDT on July 25, 2017 (GMT -0500)
Manhattan Regional

Weather History for KMHK - April, 2013

Change the Weather History Date:

Tuesday, April 16, 2013

  Actual Average Record
Temperature  
Mean Temperature 44 °F 54 °F  
Max Temperature 49 °F 67 °F 88 °F (2004)
Min Temperature 39 °F 42 °F 34 °F (1998)
Degree Days  
Heating Degree Days 21 11  
Month to date heating degree days 272 218  
Since 1 July heating degree days 4809 5054  
Cooling Degree Days 0 1  
Month to date cooling degree days 2 5  
Year to date cooling degree days 2 7  
Moisture  
Dew Point 30 °F    
Average Humidity 58    
Maximum Humidity 70    
Minimum Humidity 45    
Precipitation  
Precipitation 0.01 in 0.10 in 0.24 in (2017)
Month to date precipitation 1.05 1.17  
Year to date precipitation 3.83 5.09  
Sea Level Pressure  
Sea Level Pressure 30.10 in    
Wind  
Wind Speed 15 mph (NE)    
Max Wind Speed 22 mph    
Max Gust Speed 29 mph    
Visibility 10 miles    
Events Rain    
T = Trace of Precipitation, MM = Missing Value Source: NWS Daily Summary

Daily Weather History Graph

Daily Weather History Graph

Search for Another Location

Airport or City:

Trip Planner

Search our weather history database for the weather conditions in past years. The results will help you decide how hot, cold, wet, or windy it might be!

Date:

Astronomy

Apr. 16, 2013 Rise Set
Actual Time 6:48 AM CDT 8:05 PM CDT
Civil Twilight 6:20 AM CDT 8:33 PM CDT
Nautical Twilight 5:47 AM CDT 9:06 PM CDT
Astronomical Twilight 5:12 AM CDT 9:41 PM CDT
Moon 11:08 AM CDT (4/16) 1:02 AM CDT (4/16)
Length of Visible Light 14h 12m
Length of Day
13h 17m
Waxing Crescent, 33% of the Moon is Illuminated
Apr 16
Waxing Crescent
Apr 18
First Quarter
Apr 25
Full
May 2
Last Quarter
May 9
New

Hourly Weather History & Observations

Time (CDT) Temp. Windchill Dew Point Humidity Pressure Visibility Wind Dir Wind Speed Gust Speed Precip Events Conditions
12:52 AM 42.1 °F 35.7 °F 28.9 °F 60% 30.00 in 10.0 mi NE 11.5 mph - N/A   Clear
1:52 AM 41.0 °F 34.7 °F 28.9 °F 62% 30.03 in 10.0 mi NE 10.4 mph - N/A   Clear
2:52 AM 39.9 °F 33.9 °F 28.9 °F 65% 30.06 in 10.0 mi NE 9.2 mph - N/A   Clear
3:52 AM 41.0 °F 33.5 °F 30.0 °F 65% 30.05 in 10.0 mi NE 13.8 mph - N/A   Mostly Cloudy
4:52 AM 41.0 °F 33.9 °F 32.0 °F 70% 30.09 in 10.0 mi NE 12.7 mph - 0.00 in Rain Light Rain
5:52 AM 41.0 °F 32.2 °F 30.9 °F 67% 30.12 in 10.0 mi NE 18.4 mph 26.5 mph 0.00 in Rain Light Rain
6:52 AM 39.9 °F 31.8 °F 32.0 °F 73% 30.13 in 10.0 mi NE 15.0 mph - 0.00 in   Overcast
7:52 AM 39.9 °F 31.8 °F 30.9 °F 70% 30.14 in 10.0 mi NE 15.0 mph 23.0 mph 0.00 in   Overcast
8:52 AM 39.9 °F 31.4 °F 30.0 °F 68% 30.17 in 10.0 mi NE 16.1 mph - 0.00 in Rain Light Rain
9:52 AM 41.0 °F 32.8 °F 28.9 °F 62% 30.17 in 10.0 mi NE 16.1 mph - 0.01 in   Overcast
10:52 AM 43.0 °F 35.1 °F 28.9 °F 58% 30.17 in 10.0 mi NNE 17.3 mph - N/A   Overcast
11:52 AM 44.1 °F 36.2 °F 28.9 °F 55% 30.16 in 10.0 mi NE 18.4 mph - N/A   Overcast
12:52 PM 45.0 °F 38.5 °F 28.0 °F 52% 30.15 in 10.0 mi NE 13.8 mph 21.9 mph N/A   Overcast
1:52 PM 46.0 °F 38.8 °F 28.9 °F 51% 30.13 in 10.0 mi NE 18.4 mph - N/A   Overcast
2:52 PM 46.9 °F - 27.0 °F 46% 30.12 in 10.0 mi ENE 17.3 mph 24.2 mph N/A   Overcast
3:52 PM 48.0 °F - 28.9 °F 48% 30.09 in 10.0 mi NE 15.0 mph - N/A   Overcast
4:52 PM 48.0 °F - 28.0 °F 46% 30.08 in 10.0 mi NE 18.4 mph - N/A   Overcast
5:52 PM 48.0 °F - 28.9 °F 48% 30.07 in 10.0 mi East 17.3 mph - N/A   Overcast
6:52 PM 46.9 °F - 28.9 °F 50% 30.06 in 10.0 mi East 18.4 mph 24.2 mph N/A   Overcast
7:52 PM 46.9 °F - 30.0 °F 52% 30.07 in 10.0 mi East 15.0 mph - N/A   Overcast
8:52 PM 46.0 °F 41.0 °F 32.0 °F 58% 30.07 in 10.0 mi East 10.4 mph - N/A   Overcast
9:15 PM 46.4 °F 41.1 °F 32.0 °F 57% 30.06 in 10.0 mi ENE 11.5 mph - N/A   Overcast
9:52 PM 46.9 °F - 32.0 °F 56% 30.07 in 10.0 mi ENE 12.7 mph - N/A   Overcast
10:52 PM 46.0 °F 39.3 °F 34.0 °F 63% 30.08 in 10.0 mi East 16.1 mph 23.0 mph N/A   Overcast
11:52 PM 46.0 °F 41.9 °F 35.1 °F 66% 30.09 in 10.0 mi East 8.1 mph - N/A   Overcast